Year,Month,Day,Hour,Minute,Value (Times are PST for barometer in hPa)
2016,03,04,00,01,1009.10
2016,03,04,00,02,1009.00
2016,03,04,00,03,1009.00
2016,03,04,00,04,1009.00
2016,03,04,00,06,1009.00
2016,03,04,00,07,1009.00
2016,03,04,00,09,1009.00
2016,03,04,00,11,1009.00
2016,03,04,00,12,1009.00
2016,03,04,00,13,1009.00
2016,03,04,00,14,1009.00
2016,03,04,00,16,1008.90
2016,03,04,00,17,1008.90
2016,03,04,00,18,1008.90
2016,03,04,00,19,1008.90
2016,03,04,00,21,1008.90
2016,03,04,00,22,1008.80
2016,03,04,00,23,1008.70
2016,03,04,00,24,1008.70
2016,03,04,00,26,1008.70
2016,03,04,00,27,1008.80
2016,03,04,00,28,1008.80
2016,03,04,00,29,1008.90
2016,03,04,00,31,1008.90
2016,03,04,00,32,1008.80
2016,03,04,00,33,1008.80
2016,03,04,00,34,1008.70
2016,03,04,00,36,1008.70
2016,03,04,00,37,1008.70
2016,03,04,00,38,1008.60
2016,03,04,00,39,1008.60
2016,03,04,00,41,1008.50
2016,03,04,00,42,1008.50
2016,03,04,00,43,1008.50
2016,03,04,00,44,1008.50
2016,03,04,00,46,1008.50
2016,03,04,00,47,1008.50
2016,03,04,00,48,1008.50
2016,03,04,00,49,1008.50
2016,03,04,00,50,1008.40
2016,03,04,00,51,1008.40
2016,03,04,00,52,1008.30
2016,03,04,00,53,1008.50
2016,03,04,00,54,1008.50
2016,03,04,00,55,1008.40
2016,03,04,00,56,1008.30
2016,03,04,00,57,1008.20
2016,03,04,00,58,1008.20
2016,03,04,00,59,1008.20
2016,03,04,01,00,1008.20
2016,03,04,01,01,1008.20
2016,03,04,01,02,1008.20
2016,03,04,01,03,1008.10
2016,03,04,01,04,1008.20
2016,03,04,01,05,1008.10
2016,03,04,01,06,1008.20
2016,03,04,01,07,1008.20
2016,03,04,01,08,1008.10
2016,03,04,01,09,1008.10
2016,03,04,01,10,1008.10
2016,03,04,01,11,1008.20
2016,03,04,01,12,1008.20
2016,03,04,01,13,1008.10
2016,03,04,01,14,1008.10
2016,03,04,01,15,1008.10
2016,03,04,01,16,1008.20
2016,03,04,01,17,1008.10
2016,03,04,01,18,1008.10
2016,03,04,01,19,1008.10
2016,03,04,01,20,1008.00
2016,03,04,01,21,1008.00
2016,03,04,01,22,1008.00
2016,03,04,01,23,1008.00
2016,03,04,01,24,1008.00
2016,03,04,01,25,1008.00
2016,03,04,01,26,1008.00
2016,03,04,01,27,1008.00
2016,03,04,01,28,1008.00
2016,03,04,01,29,1008.00
2016,03,04,01,30,1008.00
2016,03,04,01,31,1008.00
2016,03,04,01,32,1008.00
2016,03,04,01,33,1008.00
2016,03,04,01,34,1008.00
2016,03,04,01,35,1008.00
2016,03,04,01,36,1007.90
2016,03,04,01,37,1007.90
2016,03,04,01,38,1008.00
2016,03,04,01,39,1008.00
2016,03,04,01,40,1008.00
2016,03,04,01,41,1008.00
2016,03,04,01,42,1007.90
2016,03,04,01,43,1007.90
2016,03,04,01,44,1007.80
2016,03,04,01,45,1007.90
2016,03,04,01,46,1007.90
2016,03,04,01,47,1007.90
2016,03,04,01,48,1007.90
2016,03,04,01,49,1007.80
2016,03,04,01,50,1007.80
2016,03,04,01,51,1007.90
2016,03,04,01,52,1007.80
2016,03,04,01,53,1007.90
2016,03,04,01,54,1007.80
2016,03,04,01,55,1007.80
2016,03,04,01,56,1007.80
2016,03,04,01,57,1007.70
2016,03,04,01,58,1007.80
2016,03,04,01,59,1007.80
2016,03,04,02,00,1007.70
2016,03,04,02,01,1007.90
2016,03,04,02,02,1007.80
2016,03,04,02,03,1007.80
2016,03,04,02,04,1007.80
2016,03,04,02,05,1007.70
2016,03,04,02,06,1007.70
2016,03,04,02,07,1007.60
2016,03,04,02,08,1007.60
2016,03,04,02,09,1007.60
2016,03,04,02,10,1007.50
2016,03,04,02,12,1007.50
2016,03,04,02,13,1007.50
2016,03,04,02,14,1007.50
2016,03,04,02,16,1007.50
2016,03,04,02,17,1007.50
2016,03,04,02,18,1007.50
2016,03,04,02,19,1007.50
2016,03,04,02,21,1007.40
2016,03,04,02,22,1007.40
2016,03,04,02,23,1007.50
2016,03,04,02,24,1007.50
2016,03,04,02,26,1007.30
2016,03,04,02,27,1007.30
2016,03,04,02,28,1007.40
2016,03,04,02,29,1007.40
2016,03,04,02,31,1007.40
2016,03,04,02,32,1007.40
2016,03,04,02,33,1007.30
2016,03,04,02,34,1007.40
2016,03,04,02,36,1007.30
2016,03,04,02,37,1007.40
2016,03,04,02,38,1007.40
2016,03,04,02,39,1007.40
2016,03,04,02,41,1007.30
2016,03,04,02,42,1007.30
2016,03,04,02,43,1007.30
2016,03,04,02,44,1007.40
2016,03,04,02,46,1007.30
2016,03,04,02,47,1007.30
2016,03,04,02,48,1007.20
2016,03,04,02,49,1007.10
2016,03,04,02,51,1007.10
2016,03,04,02,52,1007.00
2016,03,04,02,53,1007.00
2016,03,04,02,54,1007.00
2016,03,04,02,56,1006.90
2016,03,04,02,57,1006.90
2016,03,04,02,58,1006.90
2016,03,04,02,59,1006.90
2016,03,04,03,01,1006.90
2016,03,04,03,02,1006.80
2016,03,04,03,03,1006.80
2016,03,04,03,04,1006.80
2016,03,04,03,06,1006.70
2016,03,04,03,07,1006.60
2016,03,04,03,08,1006.50
2016,03,04,03,09,1006.60
2016,03,04,03,11,1006.50
2016,03,04,03,12,1006.60
2016,03,04,03,13,1006.50
2016,03,04,03,14,1006.50
2016,03,04,03,16,1006.60
2016,03,04,03,17,1006.60
2016,03,04,03,18,1006.50
2016,03,04,03,19,1006.60
2016,03,04,03,21,1006.50
2016,03,04,03,22,1006.50
2016,03,04,03,23,1006.50
2016,03,04,03,24,1006.50
2016,03,04,03,26,1006.50
2016,03,04,03,27,1006.50
2016,03,04,03,28,1006.50
2016,03,04,03,29,1006.50
2016,03,04,03,30,1006.50
2016,03,04,03,31,1006.50
2016,03,04,03,32,1006.40
2016,03,04,03,33,1006.40
2016,03,04,03,34,1006.40
2016,03,04,03,35,1006.40
2016,03,04,03,36,1006.50
2016,03,04,03,37,1006.50
2016,03,04,03,38,1006.50
2016,03,04,03,39,1006.50
2016,03,04,03,40,1006.50
2016,03,04,03,41,1006.50
2016,03,04,03,42,1006.50
2016,03,04,03,43,1006.60
2016,03,04,03,44,1006.70
2016,03,04,03,45,1006.70
2016,03,04,03,46,1006.70
2016,03,04,03,47,1006.60
2016,03,04,03,48,1006.50
2016,03,04,03,49,1006.50
2016,03,04,03,50,1006.50
2016,03,04,03,51,1006.50
2016,03,04,03,52,1006.50
2016,03,04,03,53,1006.60
2016,03,04,03,54,1006.50
2016,03,04,03,55,1006.50
2016,03,04,03,56,1006.60
2016,03,04,03,57,1006.60
2016,03,04,03,58,1006.60
2016,03,04,03,59,1006.50
2016,03,04,04,00,1006.50
2016,03,04,04,01,1006.50
2016,03,04,04,02,1006.50
2016,03,04,04,03,1006.50
2016,03,04,04,04,1006.50
2016,03,04,04,05,1006.50
2016,03,04,04,06,1006.50
2016,03,04,04,07,1006.50
2016,03,04,04,08,1006.50
2016,03,04,04,09,1006.40
2016,03,04,04,10,1006.40
2016,03,04,04,11,1006.40
2016,03,04,04,12,1006.40
2016,03,04,04,13,1006.50
2016,03,04,04,14,1006.50
2016,03,04,04,15,1006.50
2016,03,04,04,16,1006.50
2016,03,04,04,17,1006.50
2016,03,04,04,18,1006.50
2016,03,04,04,19,1006.50
2016,03,04,04,20,1006.50
2016,03,04,04,21,1006.50
2016,03,04,04,22,1006.40
2016,03,04,04,23,1006.40
2016,03,04,04,24,1006.40
2016,03,04,04,25,1006.40
2016,03,04,04,26,1006.40
2016,03,04,04,27,1006.30
2016,03,04,04,28,1006.40
2016,03,04,04,29,1006.40
2016,03,04,04,30,1006.40
2016,03,04,04,31,1006.40
2016,03,04,04,32,1006.40
2016,03,04,04,33,1006.40
2016,03,04,04,34,1006.40
2016,03,04,04,35,1006.40
2016,03,04,04,36,1006.30
2016,03,04,04,37,1006.10
2016,03,04,04,38,1006.00
2016,03,04,04,39,1006.00
2016,03,04,04,40,1006.00
2016,03,04,04,41,1006.00
2016,03,04,04,42,1006.20
2016,03,04,04,43,1006.10
2016,03,04,04,44,1006.10
2016,03,04,04,45,1006.10
2016,03,04,04,46,1006.00
2016,03,04,04,47,1006.00
2016,03,04,04,48,1005.90
2016,03,04,04,49,1005.90
2016,03,04,04,50,1005.90
2016,03,04,04,51,1005.90
2016,03,04,04,52,1005.90
2016,03,04,04,53,1005.90
2016,03,04,04,54,1005.90
2016,03,04,04,56,1005.80
2016,03,04,04,57,1005.80
2016,03,04,04,58,1005.80
2016,03,04,04,59,1005.80
2016,03,04,05,01,1005.70
2016,03,04,05,02,1005.80
2016,03,04,05,03,1005.80
2016,03,04,05,04,1005.80
2016,03,04,05,06,1005.80
2016,03,04,05,07,1005.80
2016,03,04,05,08,1005.70
2016,03,04,05,09,1005.70
2016,03,04,05,11,1005.60
2016,03,04,05,12,1005.50
2016,03,04,05,13,1005.50
2016,03,04,05,14,1005.40
2016,03,04,05,16,1005.40
2016,03,04,05,17,1005.40
2016,03,04,05,18,1005.50
2016,03,04,05,19,1005.40
2016,03,04,05,21,1005.40
2016,03,04,05,22,1005.40
2016,03,04,05,23,1005.40
2016,03,04,05,24,1005.40
2016,03,04,05,26,1005.30
2016,03,04,05,27,1005.40
2016,03,04,05,28,1005.30
2016,03,04,05,29,1005.30
2016,03,04,05,31,1005.30
2016,03,04,05,32,1005.20
2016,03,04,05,33,1005.20
2016,03,04,05,34,1005.10
2016,03,04,05,36,1005.00
2016,03,04,05,37,1005.00
2016,03,04,05,38,1004.90
2016,03,04,05,39,1004.90
2016,03,04,05,41,1004.90
2016,03,04,05,42,1004.90
2016,03,04,05,43,1004.90
2016,03,04,05,44,1004.90
2016,03,04,05,46,1004.90
2016,03,04,06,28,1004.80
2016,03,04,06,29,1004.80
2016,03,04,06,31,1004.70
2016,03,04,06,32,1004.70
2016,03,04,06,33,1004.60
2016,03,04,06,34,1004.50
2016,03,04,06,36,1004.40
2016,03,04,06,37,1004.40
2016,03,04,06,38,1004.40
2016,03,04,06,39,1004.40
2016,03,04,06,41,1004.40
2016,03,04,06,42,1004.40
2016,03,04,06,43,1004.40
2016,03,04,06,44,1004.40
2016,03,04,06,46,1004.40
2016,03,04,06,47,1004.40
2016,03,04,06,48,1004.40
2016,03,04,06,49,1004.40
2016,03,04,06,51,1004.40
2016,03,04,06,52,1004.40
2016,03,04,06,53,1004.30
2016,03,04,06,54,1004.30
2016,03,04,06,56,1004.30
2016,03,04,06,57,1004.30
2016,03,04,06,58,1004.20
2016,03,04,06,59,1004.10
2016,03,04,07,01,1004.20
2016,03,04,07,02,1004.10
2016,03,04,07,03,1004.10
2016,03,04,07,04,1004.00
2016,03,04,07,06,1003.90
2016,03,04,07,07,1003.90
2016,03,04,07,08,1003.90
2016,03,04,07,09,1003.90
2016,03,04,07,11,1003.90
2016,03,04,07,12,1003.90
2016,03,04,07,13,1003.90
2016,03,04,07,14,1003.90
2016,03,04,07,15,1003.90
2016,03,04,07,16,1003.90
2016,03,04,07,17,1003.90
2016,03,04,07,18,1003.90
2016,03,04,07,19,1003.90
2016,03,04,07,20,1003.90
2016,03,04,07,21,1003.90
2016,03,04,07,22,1003.90
2016,03,04,07,23,1003.90
2016,03,04,07,24,1003.90
2016,03,04,07,25,1003.90
2016,03,04,07,26,1003.90
2016,03,04,07,27,1003.90
2016,03,04,07,28,1003.80
2016,03,04,07,29,1003.80
2016,03,04,07,30,1003.80
2016,03,04,07,31,1003.80
2016,03,04,07,32,1003.80
2016,03,04,07,33,1003.80
2016,03,04,07,34,1003.80
2016,03,04,07,35,1003.80
2016,03,04,07,36,1003.90
2016,03,04,07,37,1003.90
2016,03,04,07,38,1003.90
2016,03,04,07,39,1003.90
2016,03,04,07,40,1003.80
2016,03,04,07,41,1003.80
2016,03,04,07,42,1003.80
2016,03,04,07,43,1003.80
2016,03,04,07,44,1003.80
2016,03,04,07,45,1003.80
2016,03,04,07,46,1003.80
2016,03,04,07,47,1003.80
2016,03,04,07,48,1003.80
2016,03,04,07,49,1003.70
2016,03,04,07,50,1003.70
2016,03,04,07,51,1003.70
2016,03,04,07,52,1003.70
2016,03,04,07,53,1003.80
2016,03,04,07,54,1003.80
2016,03,04,07,55,1003.80
2016,03,04,07,56,1003.80
2016,03,04,07,57,1003.80
2016,03,04,07,58,1003.80
2016,03,04,07,59,1003.80
2016,03,04,08,00,1003.70
2016,03,04,08,01,1003.70
2016,03,04,08,02,1003.70
2016,03,04,08,03,1003.70
2016,03,04,08,04,1003.80
2016,03,04,08,05,1003.70
2016,03,04,08,06,1003.70
2016,03,04,08,07,1003.80
2016,03,04,08,08,1003.80
2016,03,04,08,09,1003.80
2016,03,04,08,10,1003.70
2016,03,04,08,11,1003.80
2016,03,04,08,12,1003.80
2016,03,04,08,13,1003.80
2016,03,04,08,14,1003.90
2016,03,04,08,16,1003.90
2016,03,04,08,17,1003.90
2016,03,04,08,18,1003.90
2016,03,04,08,19,1003.90
2016,03,04,08,21,1003.90
2016,03,04,08,22,1003.90
2016,03,04,08,23,1003.90
2016,03,04,08,24,1003.90
2016,03,04,08,26,1003.90
2016,03,04,08,27,1003.90
2016,03,04,08,28,1003.90
2016,03,04,08,29,1004.00
2016,03,04,08,31,1004.00
2016,03,04,08,32,1004.00
2016,03,04,08,33,1004.10
2016,03,04,08,34,1004.10
2016,03,04,08,36,1004.20
2016,03,04,08,37,1004.30
2016,03,04,08,38,1004.30
2016,03,04,08,39,1004.30
2016,03,04,08,41,1004.30
2016,03,04,08,42,1004.30
2016,03,04,08,43,1004.30
2016,03,04,08,44,1004.30
2016,03,04,08,46,1004.30
2016,03,04,08,47,1004.30
2016,03,04,08,48,1004.30
2016,03,04,08,49,1004.30
2016,03,04,08,51,1004.20
2016,03,04,08,52,1004.20
2016,03,04,08,53,1004.10
2016,03,04,08,54,1004.10
2016,03,04,08,56,1004.00
2016,03,04,08,57,1004.00
2016,03,04,08,58,1004.00
2016,03,04,08,59,1003.90
2016,03,04,09,01,1004.10
2016,03,04,09,02,1004.10
2016,03,04,09,03,1004.10
2016,03,04,09,04,1004.10
2016,03,04,09,06,1004.20
2016,03,04,09,07,1004.20
2016,03,04,09,08,1004.10
2016,03,04,09,09,1004.10
2016,03,04,09,11,1004.00
2016,03,04,09,12,1004.10
2016,03,04,09,13,1004.10
2016,03,04,09,14,1004.10
2016,03,04,09,16,1004.00
2016,03,04,09,17,1003.90
2016,03,04,09,18,1003.90
2016,03,04,09,19,1003.90
2016,03,04,09,21,1003.90
2016,03,04,09,22,1003.80
2016,03,04,09,23,1003.80
2016,03,04,09,24,1003.80
2016,03,04,09,25,1003.80
2016,03,04,09,26,1003.90
2016,03,04,09,27,1003.90
2016,03,04,09,28,1003.80
2016,03,04,09,29,1003.80
2016,03,04,09,30,1003.80
2016,03,04,09,31,1003.80
2016,03,04,09,32,1003.80
2016,03,04,09,33,1003.80
2016,03,04,09,34,1003.80
2016,03,04,09,35,1003.80
2016,03,04,09,36,1003.80
2016,03,04,09,37,1003.80
2016,03,04,09,38,1003.80
2016,03,04,09,39,1003.80
2016,03,04,09,40,1003.80
2016,03,04,09,41,1003.80
2016,03,04,09,42,1003.90
2016,03,04,09,43,1003.90
2016,03,04,09,44,1003.90
2016,03,04,09,45,1003.80
2016,03,04,09,46,1003.70
2016,03,04,09,47,1003.80
2016,03,04,09,48,1003.80
2016,03,04,09,49,1003.80
2016,03,04,09,50,1003.80
2016,03,04,09,51,1003.90
2016,03,04,09,52,1003.90
2016,03,04,09,53,1003.80
2016,03,04,09,54,1003.80
2016,03,04,09,55,1003.80
2016,03,04,09,56,1003.80
2016,03,04,09,57,1003.80
2016,03,04,09,58,1003.80
2016,03,04,09,59,1003.90
2016,03,04,10,00,1003.80
2016,03,04,10,01,1003.90
2016,03,04,10,02,1003.90
2016,03,04,10,03,1003.90
2016,03,04,10,04,1003.90
2016,03,04,10,05,1003.90
2016,03,04,10,06,1004.00
2016,03,04,10,07,1004.00
2016,03,04,10,08,1003.90
2016,03,04,10,09,1003.90
2016,03,04,10,10,1003.80
2016,03,04,10,11,1003.80
2016,03,04,10,12,1003.80
2016,03,04,10,13,1003.80
2016,03,04,10,14,1003.80
2016,03,04,10,15,1003.80
2016,03,04,10,16,1003.80
2016,03,04,10,17,1003.80
2016,03,04,10,18,1003.90
2016,03,04,10,19,1003.90
2016,03,04,10,20,1003.90
2016,03,04,10,21,1003.90
2016,03,04,10,22,1003.90
2016,03,04,10,23,1004.10
2016,03,04,10,24,1004.20
2016,03,04,10,25,1004.30
2016,03,04,10,26,1004.20
2016,03,04,10,27,1004.20
2016,03,04,10,28,1004.20
2016,03,04,10,29,1004.10
2016,03,04,10,30,1004.00
2016,03,04,10,31,1003.90
2016,03,04,10,32,1003.80
2016,03,04,10,33,1003.80
2016,03,04,10,34,1003.80
2016,03,04,10,35,1003.80
2016,03,04,10,36,1003.80
2016,03,04,10,37,1003.80
2016,03,04,10,38,1003.80
2016,03,04,10,39,1003.80
2016,03,04,10,40,1003.80
2016,03,04,10,41,1003.80
2016,03,04,10,42,1003.80
2016,03,04,10,43,1003.70
2016,03,04,10,44,1003.70
2016,03,04,10,45,1003.70
2016,03,04,10,46,1003.70
2016,03,04,10,47,1003.80
2016,03,04,10,48,1003.70
2016,03,04,10,49,1003.70
2016,03,04,10,50,1003.70
2016,03,04,10,51,1003.70
2016,03,04,10,52,1003.70
2016,03,04,10,53,1003.70
2016,03,04,10,54,1003.70
2016,03,04,10,56,1003.70
2016,03,04,10,57,1003.70
2016,03,04,10,58,1003.70
2016,03,04,10,59,1003.70
2016,03,04,11,01,1003.80
2016,03,04,11,02,1003.80
2016,03,04,11,03,1003.80
2016,03,04,11,04,1003.80
2016,03,04,11,06,1003.80
2016,03,04,11,07,1003.70
2016,03,04,11,08,1003.70
2016,03,04,11,09,1003.70
2016,03,04,11,11,1003.70
2016,03,04,11,12,1003.60
2016,03,04,11,13,1003.70
2016,03,04,11,14,1003.60
2016,03,04,11,16,1003.80
2016,03,04,11,17,1003.80
2016,03,04,11,18,1003.80
2016,03,04,11,19,1003.70
2016,03,04,11,21,1003.60
2016,03,04,11,22,1003.60
2016,03,04,11,23,1003.70
2016,03,04,11,24,1003.60
2016,03,04,11,26,1003.60
2016,03,04,11,27,1003.50
2016,03,04,11,28,1003.50
2016,03,04,11,29,1003.50
2016,03,04,11,31,1003.40
2016,03,04,11,32,1003.40
2016,03,04,11,33,1003.40
2016,03,04,11,34,1003.40
2016,03,04,11,36,1003.40
2016,03,04,11,37,1003.40
2016,03,04,11,38,1003.30
2016,03,04,11,39,1003.30
2016,03,04,11,41,1003.30
2016,03,04,11,42,1003.30
2016,03,04,11,43,1003.30
2016,03,04,11,44,1003.30
2016,03,04,11,46,1003.30
2016,03,04,11,47,1003.40
2016,03,04,11,48,1003.30
2016,03,04,11,49,1003.40
2016,03,04,11,51,1003.40
2016,03,04,11,52,1003.40
2016,03,04,11,53,1003.40
2016,03,04,11,54,1003.40
2016,03,04,11,56,1003.40
2016,03,04,11,57,1003.40
2016,03,04,11,58,1003.40
2016,03,04,11,59,1003.40
2016,03,04,12,01,1003.30
2016,03,04,12,02,1003.30
2016,03,04,12,03,1003.30
2016,03,04,12,04,1003.30
2016,03,04,12,06,1003.30
2016,03,04,12,07,1003.30
2016,03,04,12,08,1003.30
2016,03,04,12,09,1003.30
2016,03,04,12,11,1003.30
2016,03,04,12,12,1003.30
2016,03,04,12,13,1003.30
2016,03,04,12,14,1003.30
2016,03,04,12,15,1003.30
2016,03,04,12,16,1003.20
2016,03,04,12,17,1003.10
2016,03,04,12,18,1003.10
2016,03,04,12,19,1003.10
2016,03,04,12,20,1003.20
2016,03,04,12,21,1003.10
2016,03,04,12,22,1003.00
2016,03,04,12,23,1003.20
2016,03,04,12,24,1003.20
2016,03,04,12,25,1003.20
2016,03,04,12,26,1003.30
2016,03,04,12,27,1003.30
2016,03,04,12,28,1003.30
2016,03,04,12,29,1003.30
2016,03,04,12,30,1003.30
2016,03,04,12,31,1003.30
2016,03,04,12,32,1003.20
2016,03,04,12,33,1003.30
2016,03,04,12,34,1003.30
2016,03,04,12,35,1003.30
2016,03,04,12,36,1003.30
2016,03,04,12,37,1003.30
2016,03,04,12,38,1003.30
2016,03,04,12,39,1003.30
2016,03,04,12,40,1003.40
2016,03,04,12,41,1003.40
2016,03,04,12,42,1003.30
2016,03,04,12,43,1003.30
2016,03,04,12,44,1003.20
2016,03,04,12,45,1003.30
2016,03,04,12,46,1003.30
2016,03,04,12,47,1003.30
2016,03,04,12,48,1003.30
2016,03,04,12,49,1003.30
2016,03,04,12,50,1003.30
2016,03,04,12,51,1003.20
2016,03,04,12,52,1003.20
2016,03,04,12,53,1003.10
2016,03,04,12,54,1003.10
2016,03,04,12,55,1003.10
2016,03,04,12,56,1003.10
2016,03,04,12,57,1003.20
2016,03,04,12,58,1003.20
2016,03,04,12,59,1003.20
2016,03,04,13,00,1002.90
2016,03,04,13,01,1002.80
2016,03,04,13,02,1002.80
2016,03,04,13,03,1002.90
2016,03,04,13,04,1003.00
2016,03,04,13,05,1002.80
2016,03,04,13,06,1002.90
2016,03,04,13,07,1003.00
2016,03,04,13,08,1002.90
2016,03,04,13,09,1002.80
2016,03,04,13,10,1002.80
2016,03,04,13,11,1002.90
2016,03,04,13,12,1002.80
2016,03,04,13,13,1002.80
2016,03,04,13,14,1002.80
2016,03,04,13,15,1002.80
2016,03,04,13,16,1002.70
2016,03,04,13,17,1002.70
2016,03,04,13,18,1002.70
2016,03,04,13,19,1002.60
2016,03,04,13,20,1002.70
2016,03,04,13,21,1002.70
2016,03,04,13,22,1002.70
2016,03,04,13,23,1002.80
2016,03,04,13,24,1002.80
2016,03,04,13,25,1002.80
2016,03,04,13,26,1002.80
2016,03,04,13,27,1002.80
2016,03,04,13,28,1002.80
2016,03,04,13,29,1002.80
2016,03,04,13,30,1002.80
2016,03,04,13,31,1002.80
2016,03,04,13,32,1002.80
2016,03,04,13,33,1002.80
2016,03,04,13,34,1002.80
2016,03,04,13,35,1002.70
2016,03,04,13,36,1002.70
2016,03,04,13,37,1002.70
2016,03,04,13,38,1002.70
2016,03,04,13,39,1002.60
2016,03,04,13,40,1002.70
2016,03,04,13,41,1002.70
2016,03,04,13,42,1002.70
2016,03,04,13,43,1002.70
2016,03,04,13,44,1002.80
2016,03,04,13,45,1002.80
2016,03,04,13,46,1002.80
2016,03,04,13,48,1002.80
2016,03,04,13,49,1002.80
2016,03,04,13,51,1002.70
2016,03,04,13,52,1002.70
2016,03,04,13,53,1002.80
2016,03,04,13,54,1002.80
2016,03,04,13,56,1002.80
2016,03,04,13,57,1002.80
2016,03,04,13,58,1002.80
2016,03,04,13,59,1002.80
2016,03,04,14,01,1002.70
2016,03,04,14,02,1002.70
2016,03,04,14,03,1002.70
2016,03,04,14,04,1002.70
2016,03,04,14,06,1002.70
2016,03,04,14,07,1002.70
2016,03,04,14,08,1002.70
2016,03,04,14,09,1002.70
2016,03,04,14,11,1002.70
2016,03,04,14,12,1002.70
2016,03,04,14,13,1002.70
2016,03,04,14,14,1002.70
2016,03,04,14,16,1002.70
2016,03,04,14,17,1002.70
2016,03,04,14,18,1002.70
2016,03,04,14,19,1002.60
2016,03,04,14,21,1002.60
2016,03,04,14,22,1002.60
2016,03,04,14,23,1002.70
2016,03,04,14,24,1002.70
2016,03,04,14,26,1002.60
2016,03,04,14,27,1002.70
2016,03,04,14,28,1002.70
2016,03,04,14,29,1002.70
2016,03,04,14,31,1002.60
2016,03,04,14,32,1002.70
2016,03,04,14,33,1002.80
2016,03,04,14,34,1002.80
2016,03,04,14,36,1002.60
2016,03,04,14,37,1002.60
2016,03,04,14,38,1002.70
2016,03,04,14,39,1002.60
2016,03,04,14,41,1002.60
2016,03,04,14,42,1002.70
2016,03,04,14,43,1002.60
2016,03,04,14,44,1002.60
2016,03,04,14,46,1002.80
2016,03,04,14,47,1002.80
2016,03,04,14,48,1002.80
2016,03,04,14,49,1002.80
2016,03,04,15,28,1002.60
2016,03,04,15,29,1002.60
2016,03,04,15,31,1002.60
2016,03,04,15,32,1002.70
2016,03,04,15,33,1002.60
2016,03,04,15,34,1002.60
2016,03,04,15,36,1002.50
2016,03,04,15,37,1002.50
2016,03,04,15,38,1002.60
2016,03,04,15,39,1002.60
2016,03,04,15,41,1002.50
2016,03,04,15,42,1002.50
2016,03,04,15,43,1002.40
2016,03,04,15,44,1002.40
2016,03,04,15,46,1002.40
2016,03,04,15,47,1002.40
2016,03,04,15,48,1002.50
2016,03,04,15,49,1002.40
2016,03,04,15,51,1002.50
2016,03,04,15,52,1002.50
2016,03,04,15,53,1002.60
2016,03,04,15,54,1002.60
2016,03,04,15,56,1002.60
2016,03,04,15,57,1002.60
2016,03,04,15,58,1002.60
2016,03,04,15,59,1002.50
2016,03,04,16,01,1002.40
2016,03,04,16,02,1002.50
2016,03,04,16,03,1002.50
2016,03,04,16,04,1002.50
2016,03,04,16,06,1002.50
2016,03,04,16,07,1002.40
2016,03,04,16,08,1002.50
2016,03,04,16,09,1002.40
2016,03,04,16,10,1002.40
2016,03,04,16,11,1002.30
2016,03,04,16,12,1002.30
2016,03,04,16,13,1002.30
2016,03,04,16,14,1002.30
2016,03,04,16,15,1002.30
2016,03,04,16,16,1002.30
2016,03,04,16,17,1002.30
2016,03,04,16,18,1002.30
2016,03,04,16,19,1002.30
2016,03,04,16,20,1002.30
2016,03,04,16,21,1002.30
2016,03,04,16,22,1002.30
2016,03,04,16,23,1002.30
2016,03,04,16,24,1002.30
2016,03,04,16,25,1002.30
2016,03,04,16,26,1002.30
2016,03,04,16,27,1002.30
2016,03,04,16,28,1002.30
2016,03,04,16,29,1002.30
2016,03,04,16,30,1002.30
2016,03,04,16,31,1002.30
2016,03,04,16,32,1002.20
2016,03,04,16,33,1002.20
2016,03,04,16,34,1002.20
2016,03,04,16,35,1002.20
2016,03,04,16,36,1002.20
2016,03,04,16,37,1002.20
2016,03,04,16,38,1002.10
2016,03,04,16,39,1002.10
2016,03,04,16,40,1002.00
2016,03,04,16,41,1002.00
2016,03,04,16,42,1002.00
2016,03,04,16,43,1002.00
2016,03,04,16,44,1002.00
2016,03,04,16,45,1002.00
2016,03,04,16,46,1002.00
2016,03,04,16,47,1001.90
2016,03,04,16,48,1001.80
2016,03,04,16,49,1001.80
2016,03,04,16,50,1001.80
2016,03,04,16,51,1001.80
2016,03,04,16,52,1001.80
2016,03,04,16,53,1001.80
2016,03,04,16,54,1001.80
2016,03,04,16,55,1001.80
2016,03,04,16,56,1001.80
2016,03,04,16,57,1001.80
2016,03,04,16,58,1001.80
2016,03,04,16,59,1001.80
2016,03,04,17,00,1001.80
2016,03,04,17,01,1001.80
2016,03,04,17,02,1001.80
2016,03,04,17,03,1001.80
2016,03,04,17,04,1001.80
2016,03,04,17,05,1001.80
2016,03,04,17,06,1001.80
2016,03,04,17,07,1001.80
2016,03,04,17,08,1001.80
2016,03,04,17,09,1001.70
2016,03,04,17,10,1001.70
2016,03,04,17,11,1001.70
2016,03,04,17,12,1001.70
2016,03,04,17,13,1001.70
2016,03,04,17,14,1001.70
2016,03,04,17,15,1001.70
2016,03,04,17,16,1001.70
2016,03,04,17,17,1001.70
2016,03,04,17,18,1001.70
2016,03,04,17,19,1001.70
2016,03,04,17,20,1001.70
2016,03,04,17,21,1001.70
2016,03,04,17,22,1001.70
2016,03,04,17,23,1001.70
2016,03,04,17,24,1001.70
2016,03,04,17,25,1001.70
2016,03,04,17,26,1001.70
2016,03,04,17,27,1001.70
2016,03,04,17,28,1001.70
2016,03,04,17,29,1001.60
2016,03,04,17,31,1001.70
2016,03,04,17,32,1001.70
2016,03,04,17,33,1001.70
2016,03,04,17,34,1001.70
2016,03,04,17,36,1001.60
2016,03,04,17,37,1001.60
2016,03,04,17,38,1001.60
2016,03,04,17,39,1001.70
2016,03,04,17,41,1001.70
2016,03,04,17,42,1001.70
2016,03,04,17,43,1001.70
2016,03,04,17,44,1001.70
2016,03,04,17,46,1001.70
2016,03,04,17,47,1001.60
2016,03,04,17,48,1001.60
2016,03,04,17,49,1001.60
2016,03,04,17,51,1001.70
2016,03,04,17,52,1001.70
2016,03,04,17,53,1001.60
2016,03,04,17,54,1001.70
2016,03,04,17,56,1001.70
2016,03,04,17,57,1001.60
2016,03,04,17,58,1001.60
2016,03,04,17,59,1001.60
2016,03,04,18,01,1001.50
2016,03,04,18,02,1001.50
2016,03,04,18,03,1001.60
2016,03,04,18,04,1001.50
2016,03,04,18,06,1001.60
2016,03,04,18,07,1001.60
2016,03,04,18,08,1001.60
2016,03,04,18,09,1001.50
2016,03,04,18,11,1001.50
2016,03,04,18,12,1001.40
2016,03,04,18,13,1001.50
2016,03,04,18,14,1001.40
2016,03,04,18,16,1001.50
2016,03,04,18,17,1001.50
2016,03,04,18,18,1001.60
2016,03,04,18,19,1001.60
2016,03,04,18,21,1001.60
2016,03,04,18,22,1001.60
2016,03,04,18,23,1001.50
2016,03,04,18,24,1001.40
2016,03,04,18,26,1001.30
2016,03,04,18,27,1001.30
2016,03,04,18,28,1001.30
2016,03,04,18,29,1001.30
2016,03,04,18,31,1001.30
2016,03,04,18,32,1001.30
2016,03,04,18,33,1001.30
2016,03,04,18,34,1001.30
2016,03,04,18,36,1001.30
2016,03,04,18,37,1001.30
2016,03,04,18,38,1001.20
2016,03,04,18,39,1001.20
2016,03,04,18,41,1001.20
2016,03,04,18,42,1001.20
2016,03,04,18,43,1001.20
2016,03,04,18,44,1001.20
2016,03,04,18,45,1001.20
2016,03,04,18,46,1001.20
2016,03,04,18,47,1001.20
2016,03,04,18,48,1001.10
2016,03,04,18,49,1001.10
2016,03,04,18,50,1001.20
2016,03,04,18,51,1001.20
2016,03,04,18,52,1001.10
2016,03,04,18,53,1001.20
2016,03,04,18,54,1001.20
2016,03,04,18,55,1001.20
2016,03,04,18,56,1001.10
2016,03,04,18,57,1001.10
2016,03,04,18,58,1001.10
2016,03,04,18,59,1001.10
2016,03,04,19,00,1001.10
2016,03,04,19,01,1001.10
2016,03,04,19,02,1001.00
2016,03,04,19,03,1001.00
2016,03,04,19,04,1001.00
2016,03,04,19,05,1001.10
2016,03,04,19,06,1001.00
2016,03,04,19,07,1000.90
2016,03,04,19,08,1000.90